Kosmos-2324

operational
NORAD ID: 23735 Int'l Des: 1995-068 Owner: VKS/IACG Country: RU Constellation: GLONASS
MEOCIRCULAR

Kosmos-2324について

説明を読み込み中...

リアルタイム位置

3D地球を読み込み中...

次回通過

高度履歴

Altitude vs Time

uPlot chart will show altitude changes over time

軌道要素

1 23735U 95068B 26059.35764495 .00000012 00000-0 00000+0 0 9995
2 23735 65.4714 206.2425 0004708 97.6505 262.3666 2.13102710235144
Epoch: Feb 28, 2026 • Age: 79 hours

現在のステータス

高度 19128.4 km
速度 3.96 km/s
衛星直下点 64.89°N, 41.44°E
打ち上げ日 Dec 14, 1995
運用期間 30.2 years
タイプ other

技術仕様

分類 Payload
質量 1300.00 kg
乾燥質量 1200.00 kg
総質量 1300.00 kg
長さ 4.00 m
直径 1.50 m
スパン 7.80 m
形状 Cyl + Ant + 2 Pan
製造者 POL
バスタイプ Uragan
フェーズステータス In Orbit
所有者/国 VKS/IACG/RU

大規模コンステレーション

Loading constellations...